Regional Weather Roundup
Issued by NWS Newport/Morehead, NC

Current Version | Previous Version | Graphics & Text | Print | Product List | Glossary On
Versions: 1 2 3 4 5 6 7 8 9 10 11 12 13 14 15 16 17 18 19 20 21 22 23 24 25 26 27 28 29 30 31 32 33 34 35 36 37 38 39 40 41 42 43 44 45 46 47 48 49 50
000 ASUS42 KMHX 291913 RWRMHX WEATHER ROUNDUP FOR EASTERN NORTH CAROLINA NATIONAL WEATHER SERVICE NEWPORT/MOREHEAD CITY NC 300 PM EDT MON MAY 29 2017 NOTE: "FAIR" INDICATES FEW OR NO CLOUDS BELOW 12,000 FEET WITH NO SIGNIFICANT WEATHER AND/OR OBSTRUCTIONS TO VISIBILITY NCZ015>017-031-032-045>047-102-103-292000- NORTH COAST CITY SKY/WX TMP DP RH WIND PRES REMARKS EDENTON CLOUDY 88 65 47 CALM 29.93F ELIZABETH CITY CLOUDY 86 67 52 NW6 29.93R KITTY HAWK PTCLDY 78 68 71 CALM 29.94R MANTEO SUNNY 84 67 57 NW7 29.95R $$ NCZ045>047-081-094-103-104-292000- CENTRAL COAST CITY SKY/WX TMP DP RH WIND PRES REMARKS FRISCO SUNNY 84 72 67 VRB6 29.95F $$ NCZ095-097-098-100-101-292000- SOUTHERN COAST CITY SKY/WX TMP DP RH WIND PRES REMARKS BEAUFORT SUNNY 82 73 74 SW12 29.94S CEDAR ISLAND NOT AVBL JACKSONVILLE NOT AVBL PINEY ISLAND CLEAR N/A N/A N/A VRB5 29.93F WILMINGTON SUNNY 89 64 43 S7 29.95F $$ NCZ011>013-027>030-043-044-078>080-089-090>093-098-292000- COASTAL PLAIN CITY SKY/WX TMP DP RH WIND PRES REMARKS AHOSKIE NOT AVBL CLINTON SUNNY 89 65 46 W3 29.95S ELIZABETHTOWN SUNNY 90 62 38 NW5 29.95F GOLDSBORO SUNNY 88 64 43 W8 29.93S GREENVILLE MOSUNNY 88 64 45 N7 29.95F HAVELOCK MOSUNNY 89 64 43 N8 29.93F KENANSVILLE SUNNY 90 63 40 NW10 29.94F KINSTON MOSUNNY 90 61 37 SW7 29.94F NEW BERN SUNNY 89 64 43 W5 29.94F RICHLANDS MOSUNNY 91 67 44 W8 29.94F ROCKY MOUNT SUNNY 88 64 44 W9 29.94S WASHINGTON SUNNY 87 65 46 NW7 29.93F WHITEVILLE MOSUNNY 88 66 47 W5 29.95F $$ AMZ130-135-150-152-154-156-158-170-250-252-270-ANZ085-086-088-633-658-670-292000- MARINE OBSERVATIONS STATION/POSITION TIME TEMP WIND PRES WAVE SWELL AIR SEA DIR/SP/G HT/PER HT/PER (UTC) (F) (DEG/KT/KT) (MB) (FT/S) (FT/S) CHESAPEAKE LIGHT NOT AVBL 64 E VA BEACH 1850 67 66 330/ 8/ 8 1014.7 4/ 6 3/ 6 DUCK 1842 74 70 120/ 6/ 7 1013.6 2 E DUCK 1900 71 N/A 2/ 9 OREGON INLET 1842 79 68 110/ 7/ 9 1013.9 13E OREGON INLT 1848 72 N/A 3/ 6 3/ 6 HATTERAS CG 1842 82 76 190/ 2/ 5 1014.0 DIAMOND BUOY 1850 77 77 240/ 6/ 6 1014.1 3/ 6 2/ 6 CAPE LOOKOUT 1900 79 210/ 12/ 15 1013.8 BEAUFORT LAB 1842 78 75 190/ 11/ 13 1013.3 30 SE NEW RVR IN 1808 78 78 220/ 8/ 10 1014.7 30 SE NEW RVR IN 1843 78 N/A 3/ 6 27 SE WRIGHTSVLE 1808 78 78 190/ 8/ 10 1014.3 5 SE WRIGHTSVLE 1808 79 78 190/ 10/ 12 1014.4 225 S CAPE HAT 1850 78 77 230/ 14/ 16 1016.7 3/ 5 2/ 8 41 SE CHARLESTON 1850 77 78 230/ 12/ 14 1016.0 2/ 5 2/ 6 $$

USA.gov is the U.S. government's official web portal to all federal, state and local government web resources and services.